Fullerton, CA

1:55 PM PST on January 21, 2017 (GMT -0800)
Fullerton

Weather History for KFUL - July, 2013

Change the Weather History Date:

Thursday, July 18, 2013

  Actual Average Record
Temperature  
Mean Temperature 76 °F 74 °F  
Max Temperature 86 °F 84 °F 93 °F (2009)
Min Temperature 65 °F 65 °F 62 °F (2011)
Degree Days  
Heating Degree Days 0 0  
Month to date heating degree days 0 0  
Since 1 June heating degree days 0 2  
Since 1 July heating degree days 0 0  
Cooling Degree Days 11 9  
Month to date cooling degree days 235 150  
Year to date cooling degree days 865 418  
Since 1 June cooling degree days 510 295  
Growing Degree Days 25 (Base 50)    
Moisture  
Dew Point 57 °F    
Average Humidity 57    
Maximum Humidity 73    
Minimum Humidity 40    
Precipitation  
Precipitation 0.00 in 0.00 in 0.14 in (2015)
Month to date precipitation T 0.02  
Year to date precipitation 2.53 9.67  
Since 1 July precipitation T  
Snow  
Snow 0.00 in - - ()
Month to date snowfall 0.0  
Year to date snowfall 0.0  
Snow Depth 0.00 in    
Sea Level Pressure  
Sea Level Pressure 29.92 in    
Wind  
Wind Speed 4 mph (SW)    
Max Wind Speed 10 mph    
Max Gust Speed 15 mph    
Visibility 10 miles    
Events      
T = Trace of Precipitation, MM = Missing Value Source: NWS Daily Summary

Daily Weather History Graph

Daily Weather History Graph

Search for Another Location

Airport or City:

Trip Planner

Search our weather history database for the weather conditions in past years. The results will help you decide how hot, cold, wet, or windy it might be!

Date:

Astronomy

Jul. 18, 2013 Rise Set
Actual Time 5:54 AM PDT 8:01 PM PDT
Civil Twilight 5:25 AM PDT 8:30 PM PDT
Nautical Twilight 4:51 AM PDT 9:04 PM PDT
Astronomical Twilight 4:14 AM PDT 9:41 PM PDT
Moon 4:05 PM PDT (7/18) 1:45 AM PDT (7/18)
Length of Visible Light 15h 04m
Length of Day
14h 07m
Waxing Gibbous, 78% of the Moon is Illuminated
Jul 18
Waxing Gibbous
Jul 22
Full
Jul 29
Last Quarter
Aug 6
New
Aug 14
First Quarter

Hourly Weather History & Observations

Time (PDT) Temp. Heat Index Dew Point Humidity Pressure Visibility Wind Dir Wind Speed Gust Speed Precip Events Conditions
12:53 AM 70.0 °F - 55.0 °F 59% 29.97 in 10.0 mi Calm Calm - N/A   Clear
1:53 AM 68.0 °F - 55.9 °F 65% 29.96 in 10.0 mi Calm Calm - N/A   Clear
2:53 AM 66.9 °F - 55.9 °F 68% 29.95 in 10.0 mi Calm Calm - N/A   Clear
3:53 AM 66.0 °F - 55.9 °F 70% 29.94 in 10.0 mi Calm Calm - N/A   Clear
4:53 AM 64.9 °F - 55.9 °F 73% 29.94 in 10.0 mi Calm Calm - N/A   Clear
5:53 AM 66.0 °F - 52.0 °F 60% 29.96 in 10.0 mi East 3.5 mph - N/A   Clear
6:53 AM 66.9 °F - 53.1 °F 61% 29.97 in 10.0 mi Calm Calm - N/A   Clear
7:53 AM 69.1 °F - 57.9 °F 68% 29.98 in 10.0 mi Calm Calm - N/A   Clear
8:53 AM 72.0 °F - 57.9 °F 61% 29.98 in 10.0 mi Variable 3.5 mph - N/A   Clear
9:53 AM 75.9 °F - 59.0 °F 56% 29.97 in 10.0 mi SSW 5.8 mph - N/A   Clear
10:53 AM 79.0 °F - 57.9 °F 48% 29.96 in 10.0 mi Variable 3.5 mph - N/A   Clear
11:53 AM 81.0 °F 81.3 °F 59.0 °F 47% 29.94 in 10.0 mi SW 6.9 mph - N/A   Clear
12:53 PM 82.0 °F 81.7 °F 57.0 °F 42% 29.93 in 10.0 mi South 8.1 mph - N/A   Clear
1:53 PM 82.0 °F 82.0 °F 57.9 °F 44% 29.92 in 10.0 mi SSW 8.1 mph - N/A   Clear
2:53 PM 82.9 °F 82.8 °F 59.0 °F 44% 29.90 in 10.0 mi SW 8.1 mph - N/A   Clear
3:53 PM 82.9 °F 82.8 °F 59.0 °F 44% 29.87 in 10.0 mi South 8.1 mph - N/A   Clear
4:53 PM 86.0 °F 85.4 °F 59.0 °F 40% 29.86 in 10.0 mi South 6.9 mph - N/A   Clear
5:53 PM 84.9 °F 84.2 °F 57.9 °F 40% 29.84 in 10.0 mi West 5.8 mph - N/A   Clear
6:53 PM 82.0 °F 82.1 °F 59.0 °F 45% 29.85 in 10.0 mi West 4.6 mph - N/A   Clear
7:53 PM 77.0 °F - 55.9 °F 48% 29.87 in 10.0 mi WNW 4.6 mph - N/A   Clear
8:53 PM 73.9 °F - 55.9 °F 53% 29.88 in 10.0 mi WNW 6.9 mph - N/A   Clear
9:53 PM 73.0 °F - 55.0 °F 53% 29.90 in 10.0 mi Calm Calm - N/A   Clear
10:53 PM 72.0 °F - 55.0 °F 55% 29.90 in 10.0 mi Calm Calm - N/A   Clear
11:53 PM 71.1 °F - 55.0 °F 57% 29.89 in 10.0 mi Calm Calm - N/A   Clear